Weather History for Waskish, MN

Change the Weather History Date:

Friday, December 28, 2012

  Actual Average (KBDE) Record (KBDE)
Temperature  
Mean Temperature 11 °F -  
Max Temperature 19 °F 18 °F 39 °F (1974)
Min Temperature 3 °F -1 °F -40 °F (1933)
Degree Days  
Heating Degree Days 54    
Moisture  
Dew Point 10 °F    
Average Humidity 91    
Maximum Humidity 100    
Minimum Humidity 80    
Precipitation  
Precipitation 0.00 in - - ()
Sea Level Pressure  
Sea Level Pressure 30.05 in    
Wind  
Wind Speed 0 mph (WSW)    
Max Wind Speed 7 mph    
Max Gust Speed -    
Visibility 8 miles    
Events Snow    
Averages and records for this station are not official NWS values.
T = Trace of Precipitation, MM = Missing Value Source: NWS Daily Summary

Daily Weather History Graph

Daily Weather History Graph

Search for Another Location

Airport:

Trip Planner

Search our weather history database for the weather conditions in past years. The results will help you decide how hot, cold, wet, or windy it might be!

Date:

Astronomy

Dec. 28, 2012 Rise Set
Actual Time 8:08 AM CST 4:31 PM CST
Civil Twilight 7:31 AM CST 5:08 PM CST
Nautical Twilight 6:52 AM CST 5:47 PM CST
Astronomical Twilight 6:14 AM CST 6:25 PM CST
Moon 5:14 PM CST (12/28) 7:58 AM CST (12/28)
Length of Visible Light 9h 36m
Length of Day
8h 23m
Full, 100% of the Moon is Illuminated
Dec 28
Full
Jan 4
Last Quarter
Jan 11
New
Jan 18
First Quarter
Jan 26
Full

Hourly Weather History & Observations

Time (CST) Temp. Windchill Dew Point Humidity Pressure Visibility Wind Dir Wind Speed Gust Speed Precip Events Conditions
12:06 AM 8.6 °F - 6.8 °F 92% 30.13 in 7.0 mi Calm Calm - N/A Snow Light Snow
12:26 AM 8.6 °F - 6.8 °F 92% 30.13 in 10.0 mi Calm Calm - N/A Snow Light Snow
12:46 AM 8.6 °F - 6.8 °F 92% 30.13 in 10.0 mi Calm Calm - N/A Snow Light Snow
1:06 AM 8.6 °F - 6.8 °F 92% 30.13 in 10.0 mi Calm Calm - N/A Snow Light Snow
1:26 AM 10.4 °F - 6.8 °F 85% 30.12 in 5.0 mi Calm Calm - N/A Snow Light Snow
1:46 AM 10.4 °F - 8.6 °F 92% 30.12 in 3.0 mi Calm Calm - N/A Snow Light Snow
2:06 AM 10.4 °F - 8.6 °F 92% 30.12 in 7.0 mi Calm Calm - N/A Snow Light Snow
2:26 AM 10.4 °F - 8.6 °F 92% 30.12 in 5.0 mi Calm Calm - N/A Snow Light Snow
2:46 AM 12.2 °F - 10.4 °F 92% 30.11 in 4.0 mi Calm Calm - N/A Snow Light Snow
3:06 AM 12.2 °F - 10.4 °F 92% 30.11 in 4.0 mi Calm Calm - N/A Snow Light Snow
3:26 AM 12.2 °F - 10.4 °F 92% 30.11 in 4.0 mi Calm Calm - N/A Snow Light Snow
3:46 AM 10.4 °F - 8.6 °F 92% 30.11 in 10.0 mi Calm Calm - N/A Snow Light Snow
4:06 AM 10.4 °F - 8.6 °F 92% 30.10 in 7.0 mi Calm Calm - N/A Snow Light Snow
4:26 AM 8.6 °F - 6.8 °F 92% 30.10 in 5.0 mi Calm Calm - N/A Snow Light Snow
4:46 AM 8.6 °F - 6.8 °F 92% 30.10 in 4.0 mi Calm Calm - N/A Snow Light Snow
5:06 AM 6.8 °F - 5.0 °F 92% 30.09 in 7.0 mi Calm Calm - N/A Snow Light Snow
5:26 AM 6.8 °F - 5.0 °F 92% 30.09 in 10.0 mi Calm Calm - N/A Snow Light Snow
5:46 AM 5.0 °F - 3.2 °F 92% 30.09 in 7.0 mi Calm Calm - N/A Snow Light Snow
6:06 AM 3.2 °F -4.2 °F 1.4 °F 92% 30.09 in 4.0 mi SE 3.5 mph - N/A Snow Light Snow
6:26 AM 5.0 °F - 1.4 °F 85% 30.08 in 10.0 mi Calm Calm - N/A   Scattered Clouds
6:46 AM 6.8 °F - 3.2 °F 85% 30.09 in 10.0 mi Calm Calm - N/A Snow Light Snow
7:06 AM 6.8 °F - 3.2 °F 85% 30.08 in 10.0 mi Calm Calm - N/A Snow Light Snow
7:26 AM 6.8 °F - 5.0 °F 92% 30.08 in 7.0 mi Calm Calm - N/A Snow Light Snow
8:06 AM 8.6 °F - 6.8 °F 92% 30.08 in 7.0 mi Calm Calm - N/A Snow Light Snow
8:26 AM 8.6 °F - 6.8 °F 92% 30.08 in 7.0 mi Calm Calm - N/A Snow Light Snow
8:46 AM 8.6 °F - 6.8 °F 92% 30.08 in 5.0 mi Calm Calm - N/A Snow Light Snow
9:06 AM 10.4 °F - 8.6 °F 92% 30.08 in 5.0 mi Calm Calm - N/A Snow Light Snow
9:26 AM 10.4 °F - 10.4 °F 100% 30.09 in 10.0 mi Calm Calm - N/A Snow Light Snow
9:46 AM 12.2 °F - 10.4 °F 92% 30.09 in 10.0 mi Calm Calm - N/A Snow Light Snow
10:06 AM 14.0 °F - 12.2 °F 93% 30.09 in 10.0 mi Calm Calm - N/A   Overcast
10:26 AM 15.8 °F - 12.2 °F 86% 30.09 in 10.0 mi Calm Calm - N/A Snow Light Snow
10:46 AM 17.6 °F - 14.0 °F 86% 30.08 in 10.0 mi Calm Calm - N/A Snow Light Snow
11:06 AM 17.6 °F - 15.8 °F 93% 30.07 in 7.0 mi Calm Calm - N/A Snow Light Snow
11:26 AM 19.4 °F - 15.8 °F 86% 30.07 in 7.0 mi Calm Calm - N/A Snow Light Snow
11:46 AM 19.4 °F 14.3 °F 14.0 °F 80% 30.06 in 5.0 mi West 3.5 mph - N/A Snow Light Snow
12:06 PM 19.4 °F 14.3 °F 15.8 °F 86% 30.06 in 7.0 mi West 3.5 mph - N/A Snow Light Snow
12:26 PM 19.4 °F - 15.8 °F 86% 30.05 in 5.0 mi Calm Calm - N/A Snow Light Snow
12:46 PM 19.4 °F 14.3 °F 15.8 °F 86% 30.04 in 4.0 mi West 3.5 mph - N/A Snow Light Snow
1:06 PM 19.4 °F - 15.8 °F 86% 30.03 in 3.0 mi Calm Calm - N/A Snow Light Snow
1:26 PM 19.4 °F - 15.8 °F 86% 30.02 in 5.0 mi Calm Calm - N/A Snow Light Snow
1:46 PM 19.4 °F 14.3 °F 15.8 °F 86% 30.02 in 5.0 mi West 3.5 mph - N/A Snow Light Snow
2:06 PM 19.4 °F 14.3 °F 15.8 °F 86% 30.02 in 7.0 mi West 3.5 mph - N/A Snow Light Snow
2:26 PM 17.6 °F 12.3 °F 14.0 °F 86% 30.01 in 5.0 mi West 3.5 mph - N/A Snow Light Snow
2:46 PM 17.6 °F - 14.0 °F 86% 30.01 in 4.0 mi Calm Calm - N/A Snow Light Snow
3:06 PM 17.6 °F - 14.0 °F 86% 30.01 in 7.0 mi Calm Calm - N/A   Overcast
3:26 PM 15.8 °F - 12.2 °F 86% 30.01 in 10.0 mi Calm Calm - N/A   Overcast
3:46 PM 15.8 °F - 12.2 °F 86% 30.01 in 7.0 mi Calm Calm - N/A Snow Light Snow
4:06 PM 15.8 °F - 12.2 °F 86% 30.01 in 10.0 mi Calm Calm - N/A Snow Light Snow
4:26 PM 14.0 °F - 12.2 °F 93% 30.01 in 10.0 mi Calm Calm - N/A   Overcast
4:46 PM 12.2 °F - 10.4 °F 92% 30.01 in 10.0 mi Calm Calm - N/A   Overcast
5:06 PM 10.4 °F - 10.4 °F 100% 30.01 in 7.0 mi Calm Calm - N/A   Overcast
5:26 PM 10.4 °F - 8.6 °F 92% 30.01 in 10.0 mi Calm Calm - N/A Snow Light Snow
5:46 PM 8.6 °F - 6.8 °F 92% 30.01 in 10.0 mi Calm Calm - N/A Snow Light Snow
6:06 PM 8.6 °F - 6.8 °F 92% 30.01 in 10.0 mi Calm Calm - N/A   Overcast
6:26 PM 8.6 °F - 6.8 °F 92% 30.01 in 10.0 mi Calm Calm - N/A   Overcast
6:46 PM 10.4 °F - 8.6 °F 92% 30.01 in 10.0 mi Calm Calm - N/A   Overcast
7:06 PM 10.4 °F - 8.6 °F 92% 30.01 in 10.0 mi Calm Calm - N/A   Overcast
7:26 PM 10.4 °F - 10.4 °F 100% 30.01 in 10.0 mi Calm Calm - N/A   Overcast
7:46 PM 12.2 °F - 10.4 °F 92% 30.01 in 5.0 mi Calm Calm - N/A Snow Light Snow
8:06 PM 12.2 °F - 10.4 °F 92% 30.00 in 1.8 mi Calm Calm - N/A Snow Light Snow
8:26 PM 12.2 °F - 10.4 °F 92% 30.00 in 4.0 mi Calm Calm - N/A Snow Light Snow
8:46 PM 12.2 °F - 12.2 °F 100% 29.99 in 10.0 mi Calm Calm - N/A Snow Light Snow
9:06 PM 12.2 °F - 10.4 °F 92% 29.99 in 10.0 mi Calm Calm - N/A   Mostly Cloudy
9:26 PM 10.4 °F - 8.6 °F 92% 29.99 in 10.0 mi Calm Calm - N/A   Overcast
9:46 PM 12.2 °F 4.3 °F 10.4 °F 92% 29.99 in 10.0 mi SW 4.6 mph - N/A Snow Light Snow
10:06 PM 14.0 °F 3.9 °F 12.2 °F 93% 29.99 in 10.0 mi SW 6.9 mph - N/A Snow Light Snow
10:26 PM 14.0 °F 6.5 °F 12.2 °F 93% 29.99 in 10.0 mi SW 4.6 mph - N/A Snow Light Snow
10:46 PM 12.2 °F 4.3 °F 10.4 °F 92% 29.99 in 10.0 mi WSW 4.6 mph - N/A Snow Light Snow
11:06 PM 10.4 °F 4.0 °F 8.6 °F 92% 29.98 in 10.0 mi SW 3.5 mph - N/A   Overcast
11:26 PM 10.4 °F - 8.6 °F 92% 29.98 in 10.0 mi Calm Calm - N/A Snow Light Snow
11:46 PM 8.6 °F 2.0 °F 6.8 °F 92% 29.98 in 10.0 mi West 3.5 mph - N/A   Overcast